STARLINK-37539, 68845

Orbit data source: Space-Track

STARLINK-37539, 68845 is a payload satellite owned by SpaceX/Seattle (US) in SSO that was launched on Sun, 26 Apr 2026 UTC via an FALCON 9 launch vehicle from the Air Force Western Test Range (AFWTR). Payload-class satellites include a variety of spacecraft equipped with specific instruments for various scientific and technological missions. These include communications satellites like Starlink; space stations such as the ISS; scientific satellites like the Hubble; Earth observation satellites from companies like Planet Labs, Umbra, and HawkEye 360; GPS; miniature CubeSats for education and research; and military/defense satellites.

Loading next visibility...
Identifier
68845, 2026-094G
Orbit
SSO
Country
Flag of USUS
Related business
Manufacturer
SpaceX/Seattle
Mission
Operational spacecraft
Bus & Motor
STARLINK V2MO, Unknown motor
Mass
575 kg wet, ~530 kg dry
Launch date (UTC)
2026-04-26 (2 months ago)
Launch vehicle
FALCON 9
Launch site
Air Force Western Test Range (AFWTR)
Object type
Payload
Rocket body
Debris
Shape & HBR
Unknown shape, 14.5 m
Radar Cross Section
Large (>1 m²)

Expand to show TLE details & history
Last TLE update: 20 hours ago

TLE from 20 hours ago
0 STARLINK-37539
1 68845U 26094G   26171.01977483  .00011316  00000-0  35218-3 0  9992
2 68845  97.2842 185.4400 0002168  95.7558 264.3932 15.33457034  8487
Epoch: 2026-06-20T00:28Z
TLE epoch observation values (Epoch: 2026-06-20T00:28:28.545Z)
Latitude
-0.00001°
Longitude
-89.91934°
Altitude
468.765 km
Speed
7.632 km/s
True Right ascension
12h 21m 45s
True Declination
0° 00' 00"
Sunlit
Object was in daylight at epoch
Visualization orbit readout
Latitude
Unknown
Longitude
Unknown
Altitude
Unknown
Speed
Unknown
Apparent Right ascension
Unknown
Apparent Declination
Unknown
Sunlit
N/A
Visualization observer readout
Local Sidereal Time
07:13:30
Azimuth
Unknown
Elevation
Unknown
Doppler factor
Unknown
Orbital elements
Apogee altitude
463.933 km
Perigee altitude
460.967 km
Semi-major axis
6,840.587 km
Eccentricity
0.00022
Inclination
97.2842°
RAAN
185.44°
Arg. of periapsis
95.7558°
True anomaly
264.36848°
Mean anomaly
264.3932°
Eccentric anomaly
264.38084°
Mean motion
3.83622 °/min
Orbital period
93.84 mins
BSTAR
0.00035218
Loading maneuver chart data...
Computing Atmospheric mass density...
Loading historical data...
Loading historical data...
Loading historical data...
Loading historical data...
Loading historical data...
Loading historical data...
Loading historical data...

Documentation

Showing up to 5 results
|